User: anonymous   Login
Location: Caltech
(34.1382°N, 118.1253°W)
Time: 14:25:40
(UTC-07:00)
Language:

OAO 1 Rocket - Orbit

View from above orbital plane
View from above orbital plane
View from above satellite
View from above satellite

Ground track
Ground track

The orbit data is extracted from the following two-line orbital elements,

1  2144U 66031B   17263.82475265 +.00000055 +00000-0 +22077-4 0  9997
2  2144 035.0435 031.6697 0008474 196.0167 164.0256 14.42635700701923
Epoch (UTC): 20 September 2017 19:47:38
Eccentricity: 0.0008474
inclination: 35.0435°
perigee height: 744 km
apogee height: 756 km
right ascension of ascending node: 31.6697°
argument of perigee: 196.0167°
revolutions per day: 14.42635700
mean anomaly at epoch: 164.0256°
orbit number at epoch: 70192

The dashed part of the orbit path shows where the satellite is in the earth's shadow,  

DLR